This demonstration page uses our WeatherBlox Daily Observations layout. Learn more.

Left ArrowRight Arrow

Hourly Observations for February 15, 2021

Temp ( °F °C ) Dew Point ( °F °C ) Humidity (%) Winds ( mph kmh ) Pressure ( in mb ) Visibility ( mi km ) Precip ( " mm )
12:54 am 00:54 Cloudy -11 -23.9 -21 -29.4 61 61 N 14 22 30.73 1041 10 16.0934 0 0
1:54 am 01:54 Mostly Cloudy -11 -23.9 -21 -29.4 61 61 N 15 24 30.72 1040 10 16.0934 0 0
3:54 am 03:54 Cloudy -11 -23.9 -21 -29.4 61 61 NNE 14 22 30.67 1039 10 16.0934 0 0
4:54 am 04:54 Cloudy -12 -24.4 -22 -30 60 60 N 12 19 30.66 1038 10 16.0934 0 0
5:54 am 05:54 Mostly Clear -14 -25.6 -23 -30.6 63 63 N 8 13 30.65 1038 10 16.0934 0 0
6:54 am 06:54 Clear -16 -26.7 -24 -31.1 66 66 N 10 17 30.61 1037 10 16.0934 0 0
7:54 am 07:54 Partly Cloudy -16 -26.7 -24 -31.1 66 66 N 7 11 30.63 1037 10 16.0934 0 0
8:54 am 08:54 Cloudy -14 -25.6 -23 -30.6 63 63 NNE 7 11 30.68 1039 10 16.0934 0 0
9:54 am 09:54 Cloudy -12 -24.4 -22 -30 60 60 NNE 10 17 30.63 1037 10 16.0934 0 0
10:54 am 10:54 Cloudy -9 -22.8 -21 -29.4 55 55 NNE 7 11 30.63 1037 10 16.0934 0 0
11:54 am 11:54 Cloudy -9 -22.8 -21 -29.4 55 55 N 8 13 30.59 1036 10 16.0934 0 0
12:54 pm 12:54 Mostly Sunny -7 -21.7 -20 -28.9 52 52 N 6 9 30.55 1035 10 16.0934 0 0
1:54 pm 13:54 Sunny -6 -21.1 -20 -28.9 50 50 NNE 8 13 30.51 1033 10 16.0934 0 0
2:54 pm 14:54 Sunny -4 -20 -20 -28.9 45 45 N 9 15 30.49 1033 10 16.0934 0 0
3:54 pm 15:54 Sunny -4 -20 -21 -29.4 43 43 NE 8 13 30.47 1032 10 16.0934 0 0
4:54 pm 16:54 Sunny -5 -20.6 -21 -29.4 45 45 NE 7 11 30.45 1031 10 16.0934 0 0
5:54 pm 17:54 Sunny -8 -22.2 -21 -29.4 52 52 NE 9 15 30.42 1030 10 16.0934 0 0
6:54 pm 18:54 Clear -13 -25 -23 -30.6 60 60 N 8 13 30.42 1030 10 16.0934 0 0
7:54 pm 19:54 Clear -14 -25.6 -23 -30.6 63 63 N 6 9 30.4 1030 10 16.0934 0 0
8:54 pm 20:54 Clear -15 -26.1 -24 -31.1 63 63 N 6 9 30.4 1029 10 16.0934 0 0
9:54 pm 21:54 Clear -15 -26.1 -24 -31.1 63 63 NNW 7 11 30.38 1029 10 16.0934 0 0
10:54 pm 22:54 Clear -21 -29.4 -27 -32.8 72 72 N 6 9 30.37 1029 10 16.0934 0 0
11:54 pm 23:54 Clear -25 -31.7 -29 -33.9 81 81 NNE 3 6 30.37 1028 10 16.0934 0 0

Powered by AerisWeather